Wind_Speed
41 42 44 45 45 45 45 44 43 43 42 42 42 42 39 40 40 40 41 42 42 42 41 40 40 39 39 39 39 39 39 39 41 42 42 43 44 45 45 45 46 46 46 46
38 38 40 44 45 45 45 44 43 41 41 41 41 40 38 38 40 40 41 42 42 43 43 43 42 42 41 41 41 41 41 42 43 43 44 45 46 47 48 49 49 49 49 49
35 35 39 42 44 44 44 43 41 40 39 40 39 39 38 38 39 40 40 41 42 43 44 44 44 44 43 43 43 43 43 44 44 45 46 47 48 49 50 50 50 50 51 52
33 34 37 40 42 42 42 42 41 40 39 39 39 38 38 37 38 38 39 40 42 43 44 45 45 45 45 44 44 44 44 44 45 46 46 47 48 49 50 51 52 53 54 55
30 31 34 37 40 41 41 41 40 40 40 39 37 36 36 36 36 37 37 39 40 42 43 43 44 44 44 44 44 44 44 44 45 46 47 48 49 49 50 52 53 54 55 56
25 27 30 34 36 38 38 38 38 39 39 38 36 35 35 34 34 34 35 36 37 39 40 40 41 41 42 42 42 42 43 43 44 45 46 47 49 50 51 52 54 55 56 57
23 25 26 29 32 34 35 36 36 36 37 36 34 33 33 32 32 32 32 33 33 34 35 35 36 37 38 39 39 40 41 42 44 45 47 48 50 51 53 54 56 57 58 59
22 24 25 27 28 29 31 32 33 33 33 32 31 31 30 29 29 29 29 29 29 30 31 32 33 34 35 36 38 39 41 42 44 46 48 51 53 54 56 58 59 61 61 62
22 23 24 25 26 26 28 29 30 30 29 28 29 29 28 27 27 27 26 26 27 28 28 29 30 32 33 35 37 38 40 43 45 47 50 52 55 57 59 61 63 64 65 66
21 22 23 23 24 25 26 27 28 28 26 25 26 25 25 25 25 24 24 24 25 25 26 27 28 30 32 34 36 38 40 42 44 47 49 52 54 56 59 62 64 66 68 69
19 21 22 22 21 21 23 24 26 26 25 24 24 24 24 24 23 23 22 22 23 24 24 26 28 30 31 33 35 36 38 40 42 44 46 49 52 55 59 62 64 67 68 69
18 19 20 21 21 21 21 22 24 24 23 23 23 24 23 22 21 21 21 21 22 22 23 25 27 28 30 31 33 34 35 37 39 41 43 47 51 54 56 58 60 62 63 64
17 18 18 19 20 20 20 21 21 21 21 22 23 23 22 20 20 20 20 20 20 21 22 24 25 26 28 29 30 31 32 33 35 37 42 44 46 48 50 51 52 52 53 54
16 16 17 17 17 18 19 19 20 20 21 22 22 21 19 18 19 19 19 19 19 19 21 23 24 25 25 26 27 28 28 29 31 35 38 39 41 42 42 41 40 40 40 42
15 15 16 16 16 17 18 19 19 20 20 21 20 19 17 17 17 17 16 16 17 18 19 21 22 23 23 23 24 24 24 26 29 31 32 33 34 34 34 32 30 29 29 31
15 15 16 16 17 17 17 17 18 18 19 19 19 18 17 16 16 15 14 14 15 17 18 20 21 21 21 21 21 21 22 24 25 27 28 28 28 28 28 26 23 21 21 22
14 15 16 16 16 16 16 16 17 17 18 19 18 17 17 16 15 14 13 13 14 16 17 18 19 19 19 19 19 20 20 21 22 23 24 24 24 24 23 20 18 16 15 16
15 15 15 15 16 16 15 16 16 17 17 17 17 17 17 16 15 13 13 13 14 15 16 16 16 17 17 17 18 18 18 18 19 20 21 21 21 21 19 17 15 12 10 8
16 16 16 16 16 15 15 16 16 16 17 17 17 17 17 16 15 14 14 14 14 15 15 15 15 16 16 16 16 16 15 16 17 17 18 18 18 18 16 15 13 11 8 6
18 18 17 17 17 17 16 17 17 17 17 17 18 18 18 17 16 15 14 14 13 14 14 15 15 15 15 15 15 14 14 14 15 15 16 16 16 16 15 14 13 11 10 8
20 19 19 19 18 18 17 18 18 18 17 18 18 19 18 18 17 16 15 14 14 13 14 14 14 14 14 14 13 13 13 13 13 14 14 14 15 15 14 14 13 11 10 8
21 21 20 20 20 19 18 18 19 18 18 18 19 19 19 19 18 16 15 15 14 13 13 13 13 13 13 13 13 12 12 12 12 13 13 14 14 14 14 14 13 12 11 9
22 21 21 20 20 20 20 20 19 20 20 20 20 20 20 20 19 17 16 16 15 14 14 14 14 14 13 13 13 12 12 12 12 13 13 14 14 14 14 13 13 12 11 11
23 23 21 20 20 21 21 20 21 21 21 22 22 22 21 20 20 19 18 17 16 15 15 15 14 14 14 13 13 13 12 12 12 13 13 14 14 14 14 13 13 13 13 13
24 23 22 21 21 21 21 21 22 22 23 23 23 23 22 21 21 20 19 18 17 17 16 16 16 15 14 14 14 14 14 13 13 13 14 15 15 15 14 14 14 14 15 15
26 24 22 21 21 21 21 22 22 23 23 24 24 24 24 23 22 21 20 19 19 18 17 17 17 16 15 15 15 15 15 15 15 15 15 16 16 16 16 16 16 17 17 18
Wind_Direction
202 204 205 205 207 209 210 213 215 218 220 222 224 225 227 231 235 237 240 242 244 245 246 248 249 251 253 255 257 259 262 263 265 266 267 268 268 268 268 268 267 266 265 264
200 202 202 203 205 207 210 213 215 217 219 222 224 226 229 231 234 237 239 241 243 245 248 250 253 255 257 259 261 263 264 265 266 266 267 268 268 269 270 270 270 269 268 267
200 201 201 202 204 207 209 213 215 218 220 223 226 229 231 232 235 238 240 242 244 246 249 252 255 258 261 263 265 266 267 268 268 268 268 268 269 269 270 270 270 270 268 267
197 199 201 203 205 207 210 213 216 218 221 224 227 232 234 235 237 239 241 243 246 248 251 254 257 260 263 266 267 268 269 270 270 270 270 269 269 269 269 268 267 266 266 266
192 196 199 202 205 208 211 213 217 220 224 228 230 236 238 239 241 242 244 246 248 250 253 256 260 263 265 267 268 270 271 271 271 271 271 271 270 269 268 267 266 266 265 265
186 189 196 200 204 208 211 214 218 222 226 230 233 237 241 242 244 245 246 247 249 252 255 258 261 263 265 267 269 271 272 273 274 274 273 273 272 271 269 268 267 265 264 263
181 183 188 195 199 206 210 213 216 221 225 230 232 236 240 242 244 245 247 248 250 253 256 258 260 263 265 268 271 273 274 275 276 276 276 275 275 274 272 271 269 267 265 263
179 184 187 191 195 199 205 209 213 218 223 226 228 232 235 237 240 243 245 247 250 252 255 258 261 265 268 271 273 275 276 277 278 278 279 278 278 277 276 274 272 269 267 264
185 189 190 192 195 199 202 205 210 215 219 219 222 227 230 231 234 238 241 245 248 252 256 260 264 268 271 273 275 277 278 279 280 281 281 281 280 279 278 276 274 271 269 266
191 192 194 197 201 202 205 206 208 212 214 215 218 221 223 225 228 232 237 243 248 254 259 263 267 270 273 275 277 279 280 281 282 283 283 283 283 282 280 279 276 273 270 267
199 198 199 201 203 206 207 208 211 214 214 214 215 218 219 222 225 230 236 243 249 254 260 265 270 273 276 278 280 281 282 283 284 285 286 286 286 284 283 280 278 274 270 266
206 205 207 209 211 212 213 214 215 215 213 213 215 217 218 221 226 232 238 244 249 255 262 267 272 275 278 280 281 282 284 286 288 289 290 291 290 289 287 285 280 275 270 266
205 208 210 212 214 215 217 219 218 214 210 209 212 217 219 222 227 232 238 245 251 258 264 269 274 278 281 282 284 285 288 291 292 294 297 298 297 296 295 291 283 277 270 265
202 205 208 210 212 213 214 215 213 209 206 207 214 219 219 222 226 230 236 243 252 261 270 274 278 282 284 284 286 288 291 294 298 303 305 304 305 304 302 299 291 281 271 265
201 202 203 204 205 207 207 207 205 204 206 211 217 221 219 221 224 228 235 245 258 269 278 282 282 283 285 287 288 290 294 299 305 311 314 313 314 313 312 308 300 288 275 266
200 199 199 200 202 203 204 204 205 208 212 216 220 221 220 218 222 230 241 254 267 278 285 288 287 285 285 287 290 292 296 303 310 318 321 322 322 321 320 315 310 301 285 270
202 201 201 203 205 206 208 210 212 215 217 219 221 220 218 218 224 234 245 258 272 282 290 293 292 288 287 288 292 295 298 306 312 320 325 329 330 332 332 326 317 309 295 278
208 208 208 210 211 214 214 217 219 221 221 221 221 218 217 221 229 238 250 264 277 285 293 297 298 296 293 292 293 297 302 308 314 320 328 334 338 341 344 343 337 328 315 296
216 217 218 219 220 221 222 224 225 224 223 222 219 218 221 227 235 244 255 269 279 288 294 299 301 302 300 296 297 299 303 310 317 322 329 336 343 349 352 355 358 358 355 341
224 226 227 228 230 230 229 230 229 227 226 222 221 221 225 232 239 247 257 269 283 293 298 301 303 305 304 302 301 302 305 313 322 328 333 340 344 352 358 2 5 7 10 10
232 232 233 234 236 236 235 235 233 231 229 226 224 225 230 235 241 250 260 270 283 294 299 302 304 307 308 309 310 310 311 317 324 332 336 340 346 351 358 1 6 7 7 5
236 237 237 239 240 240 239 238 235 234 232 229 228 229 233 237 244 252 261 270 281 291 297 301 303 304 306 309 312 314 317 322 327 334 341 345 349 355 358 1 2 2 2 359
241 241 241 243 243 242 240 239 237 235 234 232 232 233 235 239 246 253 261 268 277 287 294 299 302 303 303 306 309 312 315 320 326 333 338 341 343 346 349 351 353 354 353 350
242 243 243 244 243 243 240 238 237 236 235 234 235 236 238 242 248 254 260 266 273 281 289 295 299 301 301 301 304 306 309 313 317 323 328 330 333 335 337 338 339 339 339 337
241 242 243 244 245 244 241 239 238 238 238 238 238 239 241 244 250 255 261 266 271 277 285 290 295 297 297 296 298 299 301 304 308 313 318 321 323 325 328 331 332 333 332 331
238 240 240 242 245 246 244 242 241 241 241 241 242 243 244 247 252 257 262 266 270 274 280 286 289 293 291 291 293 294 295 296 300 305 311 315 318 321 323 326 327 328 328 328
Height
5649 5658 5667 5677 5685 5692 5699 5706 5713 5719 5726 5732 5738 5744 5749 5751 5755 5759 5762 5765 5769 5772 5776 5779 5782 5785 5787 5789 5791 5792 5793 5793 5793 5793 5793 5792 5792 5792 5791 5791 5791 5790 5790 5790
5649 5656 5664 5670 5678 5686 5693 5700 5707 5714 5720 5726 5732 5738 5741 5744 5748 5752 5756 5759 5762 5765 5768 5771 5774 5777 5779 5781 5783 5784 5784 5784 5784 5784 5784 5784 5783 5783 5782 5782 5781 5781 5781 5781
5647 5654 5660 5667 5674 5682 5689 5696 5703 5710 5716 5721 5727 5731 5734 5738 5742 5746 5749 5752 5755 5758 5761 5764 5766 5768 5770 5772 5773 5774 5775 5775 5775 5775 5774 5774 5773 5773 5773 5772 5771 5771 5770 5769
5643 5650 5656 5663 5671 5678 5685 5691 5698 5704 5710 5715 5721 5724 5728 5732 5736 5740 5743 5746 5749 5751 5754 5756 5758 5760 5761 5763 5763 5764 5764 5764 5764 5764 5763 5763 5763 5763 5762 5760 5760 5758 5757 5757
5642 5648 5654 5660 5667 5674 5680 5687 5693 5699 5704 5710 5714 5718 5722 5726 5730 5734 5736 5739 5742 5744 5746 5748 5750 5751 5752 5753 5754 5754 5753 5753 5753 5752 5752 5751 5751 5751 5750 5748 5747 5746 5745 5745
5642 5647 5651 5657 5663 5670 5676 5683 5688 5693 5698 5704 5709 5713 5716 5720 5723 5727 5730 5732 5734 5737 5739 5740 5741 5742 5743 5743 5743 5743 5743 5742 5741 5741 5740 5739 5738 5737 5736 5735 5734 5733 5732 5732
5641 5646 5650 5655 5660 5666 5672 5679 5684 5688 5692 5698 5703 5706 5711 5714 5717 5719 5722 5725 5727 5729 5731 5732 5733 5734 5734 5734 5734 5733 5732 5731 5730 5729 5727 5726 5724 5723 5722 5720 5719 5718 5717 5717
5641 5645 5650 5654 5659 5664 5669 5675 5681 5685 5689 5693 5696 5700 5704 5707 5710 5712 5715 5718 5720 5721 5723 5724 5725 5725 5725 5725 5724 5723 5722 5721 5719 5717 5715 5712 5710 5708 5706 5704 5702 5701 5700 5700
5641 5645 5649 5653 5657 5662 5666 5670 5675 5680 5683 5688 5691 5694 5698 5701 5704 5706 5709 5711 5712 5714 5715 5716 5716 5717 5716 5716 5715 5713 5712 5710 5707 5705 5702 5699 5696 5693 5690 5687 5684 5682 5680 5680
5641 5644 5648 5651 5655 5659 5663 5667 5671 5675 5679 5683 5686 5689 5693 5696 5698 5701 5703 5704 5706 5707 5708 5708 5708 5708 5708 5707 5706 5704 5702 5699 5696 5693 5690 5686 5681 5677 5673 5669 5665 5662 5659 5658
5641 5644 5647 5650 5654 5657 5661 5665 5668 5671 5675 5679 5682 5687 5688 5690 5693 5695 5697 5699 5700 5701 5701 5701 5701 5700 5699 5698 5696 5694 5692 5689 5686 5682 5678 5673 5667 5661 5656 5650 5644 5640 5637 5636
5639 5643 5645 5649 5652 5654 5657 5661 5664 5668 5671 5674 5677 5683 5683 5686 5688 5690 5692 5693 5694 5695 5695 5695 5694 5693 5691 5689 5687 5685 5682 5679 5675 5671 5666 5660 5653 5646 5638 5630 5624 5618 5615 5614
5638 5641 5644 5647 5651 5652 5654 5657 5660 5664 5667 5670 5673 5678 5678 5681 5684 5686 5687 5688 5689 5689 5689 5688 5687 5685 5683 5681 5678 5676 5673 5669 5665 5660 5654 5646 5638 5630 5621 5612 5605 5599 5596 5596
5636 5639 5643 5645 5647 5649 5652 5654 5657 5660 5663 5666 5669 5672 5675 5677 5679 5680 5682 5683 5684 5683 5683 5681 5679 5678 5675 5673 5670 5668 5664 5660 5656 5650 5642 5635 5626 5617 5607 5598 5590 5585 5582 5582
5635 5637 5639 5641 5644 5646 5649 5652 5654 5657 5660 5663 5665 5667 5670 5672 5674 5676 5677 5678 5678 5677 5676 5674 5672 5670 5668 5665 5663 5660 5656 5653 5647 5641 5633 5625 5617 5608 5599 5590 5582 5577 5574 5573
5633 5635 5637 5639 5641 5644 5646 5649 5652 5654 5657 5659 5661 5664 5666 5667 5669 5671 5672 5672 5672 5671 5670 5668 5666 5663 5661 5659 5656 5653 5650 5646 5640 5634 5627 5619 5611 5602 5594 5585 5579 5573 5570 5568
5631 5634 5636 5638 5640 5642 5645 5647 5649 5651 5653 5655 5657 5660 5661 5664 5665 5666 5667 5668 5667 5666 5664 5662 5659 5657 5655 5652 5650 5647 5643 5639 5634 5628 5622 5614 5607 5599 5590 5583 5577 5572 5568 5566
5630 5631 5633 5635 5638 5640 5644 5644 5645 5647 5649 5651 5653 5655 5658 5660 5661 5662 5663 5663 5662 5661 5659 5657 5654 5652 5649 5647 5644 5641 5638 5634 5629 5624 5618 5611 5604 5597 5590 5583 5577 5572 5569 5566
5627 5629 5631 5633 5635 5637 5640 5640 5642 5644 5646 5647 5650 5652 5654 5655 5657 5658 5659 5658 5658 5656 5654 5652 5649 5647 5644 5642 5639 5636 5633 5629 5625 5620 5615 5609 5603 5596 5590 5584 5578 5574 5571 5568
5624 5626 5628 5629 5631 5633 5636 5637 5638 5641 5642 5644 5646 5648 5650 5651 5653 5655 5654 5654 5653 5651 5649 5647 5645 5642 5640 5637 5634 5631 5628 5625 5621 5617 5612 5607 5602 5596 5591 5586 5581 5577 5574 5571
5620 5622 5624 5625 5626 5629 5631 5632 5634 5638 5639 5640 5641 5643 5645 5647 5649 5650 5649 5649 5648 5647 5645 5643 5641 5638 5636 5633 5630 5628 5625 5622 5618 5614 5610 5606 5601 5596 5592 5587 5583 5579 5577 5574
5615 5617 5619 5620 5622 5626 5626 5627 5630 5632 5633 5635 5637 5639 5641 5642 5644 5645 5645 5644 5643 5642 5641 5639 5637 5635 5632 5630 5627 5624 5622 5619 5616 5612 5608 5605 5601 5597 5592 5589 5585 5582 5579 5577
5610 5613 5614 5616 5619 5620 5620 5622 5624 5626 5628 5630 5632 5634 5636 5638 5639 5640 5640 5639 5639 5638 5636 5634 5633 5631 5628 5626 5624 5621 5619 5616 5613 5610 5607 5603 5600 5596 5593 5589 5586 5583 5580 5578
5604 5606 5608 5610 5612 5613 5615 5617 5619 5621 5623 5625 5627 5629 5631 5632 5633 5634 5635 5635 5634 5633 5631 5630 5628 5626 5624 5622 5620 5618 5616 5613 5611 5608 5605 5602 5599 5596 5592 5589 5586 5583 5580 5578
5598 5600 5602 5604 5606 5607 5609 5611 5613 5615 5617 5619 5621 5623 5625 5627 5628 5629 5629 5629 5629 5628 5627 5625 5624 5622 5620 5618 5617 5615 5613 5611 5608 5606 5603 5600 5597 5594 5591 5588 5585 5582 5579 5576
5591 5594 5596 5599 5600 5602 5604 5605 5607 5609 5611 5613 5615 5617 5619 5621 5622 5622 5623 5623 5623 5622 5621 5620 5619 5617 5616 5614 5612 5611 5609 5607 5605 5603 5600 5597 5594 5591 5588 5585 5582 5579 5576 5573